STARLINK-32171, 60332

Orbit data source: Space-Track

STARLINK-32171, 60332 is a payload satellite owned by SpaceX/Seattle (US) in LEO that was launched on Fri, 02 Aug 2024 UTC via an FALCON 9 launch vehicle from the Air Force Eastern Test Range (AFETR). Payload-class satellites include a variety of spacecraft equipped with specific instruments for various scientific and technological missions. These include communications satellites like Starlink; space stations such as the ISS; scientific satellites like the Hubble; Earth observation satellites from companies like Planet Labs, Umbra, and HawkEye 360; GPS; miniature CubeSats for education and research; and military/defense satellites.

Loading next visibility...
Identifier
60332, 2024-136D
Orbit
LEO
Country
Flag of USUS
Related business
Manufacturer
SpaceX/Seattle
Mission
Operational Commercial Communications
Bus & Motor
STARLINK V2M, Unknown motor
Mass
730 kg wet, ~700 kg dry
Launch date (UTC)
2024-08-02 (1 year ago)
Launch vehicle
FALCON 9
Launch site
Air Force Eastern Test Range (AFETR)
Object type
Payload
Rocket body
Debris
Shape & HBR
Box + 2 Pan, 17.7 m
Radar Cross Section
33.884 m², Large (>1 m²)

Expand to show TLE details & history
Last TLE update: 8 hours ago

TLE from 8 hours ago
0 STARLINK-32171
1 60332U 24136D   25308.12724330  .00001733  00000-0  70630-4 0  9994
2 60332  53.1610 298.6716 0001295  78.6359 281.4787 15.30194324 70440
Epoch: 2025-11-04T03:03Z
TLE epoch observation values (Epoch: 2025-11-04T03:03:13.821Z)
Latitude
-0.00002°
Longitude
-150.75473°
Altitude
475.955 km
Speed
7.629 km/s
True Right ascension
19h 54m 41s
True Declination
0° 00' 00"
Sunlit
Object was in daylight at epoch
Visualization orbit readout
Latitude
Unknown
Longitude
Unknown
Altitude
Unknown
Speed
Unknown
Apparent Right ascension
Unknown
Apparent Declination
Unknown
Sunlit
N/A
Visualization observer readout
Local Sidereal Time
06:41:46
Azimuth
Unknown
Elevation
Unknown
Doppler factor
Unknown
Orbital elements
Apogee altitude
476.376 km
Perigee altitude
474.601 km
Semi-major axis
6,853.625 km
Eccentricity
0.00013
Inclination
53.161°
RAAN
298.6716°
Arg. of periapsis
78.6359°
True anomaly
281.46416°
Mean anomaly
281.4787°
Eccentric anomaly
281.47143°
Mean motion
3.82527 °/min
Orbital period
94.11 mins
BSTAR
0.00007063
Loading maneuver chart data...
Computing Atmospheric mass density...
Loading historical data...
Loading historical data...
Loading historical data...
Loading historical data...
Loading historical data...
Loading historical data...
Loading historical data...

Documentation

Showing up to 5 results
|